{"data":{"norad_id":46340,"intl_designator":"2020-062R","name":"STARLINK-1759","alt_names":[],"object_type":"PAYLOAD","status":"ACTIVE","operator":null,"country":"US","launch_date":"2020-09-03","launch_site_code":"AFETR","launch_vehicle":null,"mission":null,"orbit_class":"UNKNOWN","rcs_meters":null,"size_class":null,"mass_kg":null,"dimensions":null,"purposes":["comms"],"wikipedia_slug":null,"has_3d_model":false,"image_url":null,"decayed_at":null,"tle_current":{"epoch":"2026-05-24T18:09:03.703104Z","epoch_age_seconds":92772,"freshness":"FRESH","line1":"1 46340U 20062R   26144.75629286  .00142680  00000+0  81249-3 0  9996","line2":"2 46340  53.0175 315.0814 0003995 236.7270 123.3367 15.78028311316882","mean_motion":15.78028311,"eccentricity":0.0003995,"inclination_deg":53.0175,"raan_deg":315.0814,"arg_perigee_deg":236.727,"mean_anomaly_deg":123.3367,"bstar":0.00081249,"rev_number":31688,"period_min":91.253115673664,"perigee_km":333.34524590252,"apogee_km":338.70986338168,"semimajor_km":6714.1645546421,"source":"CELESTRAK","updated_at":"2026-05-25T13:38:16.471053Z"}}}